Miscellaneous Local Product
Issued by NWS North Platte, NE

Home | Current Version | Previous Version | Text Only | Print | Product List | Glossary On
Versions: 1 2 3 4 5 6 7 8 9 10 11 12 13 14 15 16 17 18 19 20 21 22 23 24 25 26 27 28 29 30 31 32 33 34 35 36 37 38 39 40 41 42 43 44 45 46 47 48 49 50
000
AXUS43 KLBF 290710
MISLBF


WESTERN AND NORTH CENTRAL NEBRASKA HOURLY WEATHER ROUNDUP
NATIONAL WEATHER SERVICE NORTH PLATTE NE
200 AM CDT TUE JUL 29 2014

***STATIONS NOT REPORTING VARIABLES SUCH AS SKY/WEATHER OR
PRESSURE ARE PROVIDED BY THE NEBRASKA DEPARTMENT OF
ROADS...RAWS...AND APRS NETWORKS...AND ARE NOT UNDER
NATIONAL WEATHER SERVICE QUALITY CONTROL***

...OBSERVATIONS IN AND NEAR THE EASTERN PANHANDLE OF NEBRASKA...

CITY           SKY/WX    TMP DP  RH WIND       PRES   REMARKS
PINE RIDGE     MOCLDY    63  52  67 E9        30.25S
CHADRON        PTCLDY    63  53  70 NE8       30.23S
ALLIANCE       PTCLDY    62  57  83 E9        30.23F
SIDNEY         MOCLDY    62  52  69 S3        30.24F
WHITECLAY        N/A     66  49  53 SE10        N/A
RUSHVILLE        N/A     63  51  64 E15         N/A
GORDON           N/A     66  54  63 E10         N/A
CRESCENT LAKE    N/A     63  56  78 E6G13       N/A
LISCO            N/A     70  59  66 E12         N/A
BIG SPRINGS      N/A     67  59  75 E5          N/A
$$

...OBSERVATIONS IN NORTH CENTRAL NEBRASKA...

CITY           SKY/WX    TMP DP  RH WIND       PRES   REMARKS
VALENTINE      PTCLDY    59  51  75 E8        30.26R
THEDFORD       PTCLDY    61  55  82 CALM      30.26S
AINSWORTH      PTCLDY    57  55  92 E6        30.26R
O`NEILL        CLEAR     58  52  79 CALM      30.24F
ORD            PTCLDY    57  55  93 CALM      30.24R
BROKEN BOW     CLOUDY    63  58  83 CALM      30.25R
BROWNLEE         N/A     65  55  69 E8          N/A
SPRINGVIEW       N/A     58  53  85 CALM        N/A
DUNNING          N/A     64  61  88 CALM        N/A
ROSE             N/A     61  59  94 CALM        N/A
NEWPORT          N/A     57  55  92 CALM        N/A
SARGENT          N/A     61  57  88 CALM        N/A
COMSTOCK         N/A     66  62  86 CALM        N/A
CHAMBERS         N/A     56  52  87 CALM        N/A
EWING            N/A     55  51  88 CALM        N/A
$$

...OBSERVATIONS IN SOUTHWEST NEBRASKA AND FAR NORTHEAST COLORADO...

CITY           SKY/WX    TMP DP  RH WIND       PRES   REMARKS
WRAY             N/A     72  58  60 S8        30.23S
HOLYOKE        FAIR      63  57  82 SE3       30.23S
IMPERIAL       MOCLDY    64  58  80 SE9       30.22F
OGALLALA       CLEAR     62  57  84 E7        30.22F
NORTH PLATTE   CLEAR     59  57  93 E6        30.24S
MCCOOK         MOCLDY    66  57  72 E9        30.22F
LEXINGTON      CLEAR     64  59  82 SE7       30.24S
PAXTON           N/A     64  60  86 E5          N/A
SUTHERLAND       N/A     60  57  91 E5          N/A
BRADY            N/A     60  56  87 CALM        N/A
CALLAWAY         N/A     59  57  92 SE7         N/A
$$

...SOME WEATHER OBSERVATIONS FROM AROUND THE REGION...

CITY           SKY/WX    TMP DP  RH WIND       PRES   REMARKS
DENVER         PTCLDY    65  58  78 SW5       30.27F
LARAMIE        PTCLDY    59  51  75 S8        30.39F
CHEYENNE       PTCLDY    60  53  77 W5        30.33F
SCOTTSBLUFF    PTCLDY    67  60  78 E9        30.22S
RAPID CITY     CLEAR     57  50  77 CALM      30.28S
PIERRE         CLEAR     57  52  83 NE5       30.22S
WINNER         FAIR      60  50  69 SE8       30.24F
SIOUX FALLS    CLEAR     55  53  93 CALM      30.22S
OMAHA          CLEAR     63  57  81 N5        30.20S
GRAND ISLAND   CLOUDY    65  57  75 CALM      30.23S
KANSAS CITY    CLEAR     63  58  83 NW3       30.18S
WICHITA        MOCLDY    71  55  56 E6        30.18S
HAYS           MOCLDY    68  54  60 E10       30.21S
LIBERAL        MOCLDY    66  55  68 S6        30.26S
GOODLAND       CLOUDY    66  59  78 S6        30.25S
$$



USA.gov is the U.S. government's official web portal to all federal, state and local government web resources and services.